Location: Barruelo
(41.2448°N, 3.8231°W)
Time: 20:10:49
(UTC+00:00)

Cosmos 1782 - Pass Details

Date: 11 December 2025
Orbit: 464 x 476 km, 82.5° (Epoch: 12 January)

Event Time Altitude Azimuth Distance (km) Brightness Sun altitude
Rises 17:17:42 0° 196° (SSW) 2,521 6.9 -6.0°
Reaches altitude 10° 17:19:49 10° 201° (SSW) 1,646 6.0 -6.4°
Maximum altitude 17:23:21 54° 279° (W) 588 3.4 -7.0°
Drops below altitude 10° 17:26:54 10° 358° (N) 1,653 5.0 -7.6°
Sets 17:29:02 0° 3° (N) 2,533 5.9 -8.0°
